EW7349 Weather Reports


time (UTC)temp
C
wind
direction
speed
KPH
gust
KPH
rain 1hr
cm
rain 24hr
cm
rain mn
cm
humidity
%
barometer
mb
20260507095335 12 78 0.0 0.0 0.00 1.30 0.91 92 1011.3
20260507095044 12 78 0.0 0.0 0.00 1.30 0.91 92 1011.2
20260507094544 12 78 0.0 0.0 0.00 1.30 0.91 92 1011.3
20260507093818 12 78 0.0 0.0 0.00 1.30 0.91 92 1011.3
20260507093311 12 78 0.0 0.0 0.00 1.30 0.91 92 1011.4
20260507092805 12 78 0.0 0.0 0.00 1.30 0.91 92 1011.4
20260507092300 12 78 0.0 0.0 0.00 1.30 0.91 92 1011.3
20260507091753 12 56 0.0 0.0 0.00 1.30 0.91 92 1011.1
20260507091247 12 57 0.0 1.6 0.00 1.30 0.91 92 1011.1
20260507090741 12 56 0.0 1.6 0.00 1.30 0.91 92 1011.0
20260507090455 12 98 0.0 1.6 0.00 1.30 0.91 92 1010.8
20260507085954 12 98 0.0 1.6 0.00 1.30 0.91 92 1010.9
20260507085454 12 98 1.6 3.2 0.00 1.30 0.91 92 1010.9
20260507084716 12 98 1.6 3.2 0.00 1.30 0.91 92 1010.9
20260507084211 12 72 0.0 1.6 0.00 1.30 0.91 92 1011.0
20260507083706 12 72 0.0 1.6 0.00 1.30 0.91 92 1011.0
20260507083200 12 74 0.0 0.0 0.00 1.30 0.91 92 1011.0
20260507082653 12 74 0.0 0.0 0.00 1.30 0.91 92 1011.1
20260507082406 12 74 0.0 3.2 0.00 1.30 0.91 92 1011.2
20260507081906 12 74 0.0 3.2 0.00 1.30 0.91 92 1011.0
20260507081136 12 60 0.0 1.6 0.00 1.30 0.91 92 1011.1
20260507080629 12 60 0.0 6.4 0.00 1.30 0.91 92 1011.3
20260507080123 12 62 1.6 6.4 0.00 1.30 0.91 92 1011.0
20260507075617 12 51 1.6 6.4 0.00 1.30 0.91 92 1010.6
20260507075337 12 34 1.6 6.4 0.00 1.30 0.91 91 1010.5
20260507074607 12 55 1.6 8.0 0.00 1.30 0.91 92 1010.5
20260507074100 12 78 1.6 8.0 0.00 1.30 0.91 92 1010.4
20260507073553 12 15 1.6 9.7 0.00 1.30 0.91 92 1010.4
20260507073047 12 94 1.6 9.7 0.00 1.30 0.91 92 1010.4
20260507072542 12 32 0.0 4.8 0.00 1.30 0.91 92 1010.3
20260507072255 12 51 1.6 8.0 0.00 1.30 0.91 92 1010.2
20260507071530 12 46 1.6 8.0 0.00 1.30 0.91 92 1010.2
20260507071023 12 60 1.6 6.4 0.00 1.30 0.91 92 1010.4
20260507070517 13 63 1.6 8.0 0.00 1.30 0.91 92 1010.4
20260507070013 13 82 1.6 8.0 0.00 1.30 0.91 92 1010.4
20260507065505 13 14 1.6 4.8 0.00 1.30 0.91 91 1010.6
20260507064959 13 47 0.0 4.8 0.00 1.30 0.91 91 1010.4
20260507064453 13 92 1.6 4.8 0.00 1.30 0.91 91 1010.3
20260507063947 13 52 1.6 8.0 0.00 1.30 0.91 91 1010.2
20260507063441 13 55 1.6 8.0 0.03 1.30 0.91 91 1010.3
20260507062935 13 50 3.2 8.0 0.03 1.30 0.91 91 1010.4
20260507062429 13 321 3.2 9.7 0.05 1.30 0.91 91 1010.4
20260507061925 13 82 3.2 9.7 0.05 1.30 0.91 91 1010.7
20260507061418 13 36 3.2 12.9 0.10 1.30 0.91 91 1010.6
20260507060913 13 92 4.8 12.9 0.13 1.30 0.91 91 1010.3
20260507060405 13 295 3.2 12.9 0.13 1.30 0.91 91 1010.2
20260507055900 13 40 3.2 9.7 0.13 1.30 0.91 91 1010.1
20260507055615 13 53 3.2 11.3 0.15 1.30 0.91 91 1010.0
20260507054847 14 62 3.2 11.3 0.15 1.30 0.91 90 1009.8
20260507054610 14 25 3.2 9.7 0.15 1.30 0.91 90 1009.4
20260507053835 14 20 3.2 9.7 0.15 1.30 0.91 90 1009.6
20260507053336 14 70 1.6 6.4 0.15 1.27 0.89 90 1009.8
20260507052836 14 80 1.6 6.4 0.20 1.27 0.89 90 1010.0
20260507052334 15 117 1.6 3.2 0.20 1.24 0.86 90 1009.5
20260507051835 15 82 0.0 3.2 0.25 1.22 0.84 89 1010.1
20260507051335 15 28 0.0 3.2 0.41 1.19 0.81 89 1010.5
20260507050833 15 21 1.6 3.2 0.66 1.17 0.79 89 1010.3
20260507050330 15 53 0.0 3.2 0.79 1.17 0.79 89 1010.4
20260507045830 15 69 0.0 3.2 0.79 1.17 0.79 89 1010.5
20260507045553 15 187 1.6 6.4 0.76 1.14 0.76 88 1010.1
20260507044825 15 9 1.6 14.5 0.76 1.14 0.76 88 1010.0
20260507044325 15 355 3.2 14.5 0.76 1.14 0.76 88 1010.0
20260507043823 16 100 1.6 9.7 0.76 1.14 0.76 87 1010.1
20260507043323 16 279 1.6 6.4 0.74 1.12 0.74 87 1010.3
20260507042823 16 94 3.2 8.0 0.69 1.07 0.71 87 1010.4
20260507042323 16 47 3.2 8.0 0.66 1.04 0.66 86 1010.9
20260507041823 17 244 3.2 8.0 0.56 0.94 0.58 86 1010.9
20260507041321 17 209 3.2 8.0 0.36 0.74 0.41 85 1010.9
20260507040818 17 132 1.6 8.0 0.13 0.51 0.13 84 1010.2
20260507040319 17 36 1.6 4.8 0.00 0.38 0.00 84 1009.9
20260507040036 17 79 1.6 6.4 0.00 0.38 0.38 83 1009.3
20260507035307 17 71 1.6 6.4 0.00 0.38 0.38 83 1009.4
20260507034801 17 78 1.6 6.4 0.00 0.38 0.38 83 1009.5
20260507034256 17 24 1.6 6.4 0.00 0.38 0.38 82 1009.6
20260507033750 17 16 3.2 8.0 0.00 0.38 0.38 83 1009.5
20260507033243 17 57 3.2 8.0 0.00 0.38 0.38 83 1009.5
20260507032737 17 86 3.2 9.7 0.00 0.38 0.38 83 1009.5
20260507032231 17 51 1.6 11.3 0.00 0.38 0.38 83 1009.7
20260507031725 18 12 1.6 11.3 0.00 0.38 0.38 84 1009.7
20260507031220 18 308 1.6 4.8 0.00 0.38 0.38 84 1009.8
20260507030713 18 28 3.2 4.8 0.00 0.38 0.38 85 1009.9
20260507030207 18 57 3.2 6.4 0.00 0.38 0.38 86 1009.7
20260507025702 18 57 3.2 12.9 0.00 0.38 0.38 87 1009.2
20260507025155 18 22 1.6 12.9 0.00 0.38 0.38 88 1009.0
20260507024649 18 19 3.2 4.8 0.00 0.38 0.38 88 1009.3
20260507024143 18 61 3.2 8.0 0.00 0.38 0.38 88 1009.4
20260507023640 18 44 0.0 8.0 0.00 0.38 0.38 88 1009.5
20260507023403 18 36 0.0 0.0 0.00 0.38 0.38 88 1009.6
20260507022915 18 36 0.0 0.0 0.00 0.38 0.38 87 1009.3
20260507022142 18 350 0.0 0.0 0.00 0.38 0.38 87 1009.2
20260507021642 18 350 0.0 0.0 0.00 0.38 0.38 87 1009.2
20260507021141 18 234 0.0 0.0 0.00 0.38 0.38 87 1008.9
20260507020641 18 234 0.0 1.6 0.00 0.38 0.38 87 1008.6
20260507020140 18 234 0.0 1.6 0.00 0.38 0.38 87 1008.4
20260507015637 18 234 0.0 0.0 0.00 0.38 0.38 86 1008.7
20260507015140 18 234 0.0 0.0 0.00 0.38 0.38 86 1008.8
20260507014640 18 234 0.0 0.0 0.00 0.38 0.38 86 1008.9
20260507014137 18 234 0.0 0.0 0.00 0.38 0.38 86 1008.9
20260507013634 18 234 0.0 0.0 0.00 0.38 0.38 85 1009.1
20260507013131 18 234 0.0 0.0 0.00 0.38 0.38 85 1009.2
20260507012629 18 234 0.0 0.0 0.00 0.38 0.38 85 1009.0
20260507012131 18 234 0.0 0.0 0.00 0.38 0.38 85 1009.1
20260507011627 19 234 0.0 0.0 0.00 0.38 0.38 84 1009.2
20260507011126 19 234 0.0 0.0 0.00 0.38 0.38 84 1009.2
20260507010623 19 234 0.0 0.0 0.00 0.38 0.38 83 1009.0
20260507010354 19 234 0.0 0.0 0.00 0.38 0.38 83 1009.0
20260507005836 19 234 0.0 0.0 0.00 0.38 0.38 83 1009.1
20260507005110 19 234 0.0 0.0 0.00 0.38 0.38 82 1009.1
20260507004603 19 234 0.0 0.0 0.00 0.38 0.38 82 1009.1
20260507004057 20 234 0.0 0.0 0.00 0.38 0.38 82 1009.0
20260507003551 20 234 0.0 0.0 0.00 0.38 0.38 81 1008.8
20260507003045 20 234 0.0 0.0 0.00 0.38 0.38 81 1008.6
20260507002539 20 234 0.0 3.2 0.00 0.38 0.38 81 1008.6
20260507002254 20 234 0.0 4.8 0.00 0.38 0.38 81 1008.6
20260507001534 20 240 0.0 4.8 0.00 0.38 0.38 81 1008.7
20260507001035 20 269 0.0 3.2 0.00 0.38 0.38 81 1008.6
20260507000532 20 271 1.6 9.7 0.00 0.38 0.38 81 1008.6
20260507000306 20 272 1.6 9.7 0.00 0.38 0.38 80 1008.5
20260506235532 20 229 1.6 6.4 0.00 0.38 0.38 80 1008.4
20260506235032 20 225 1.6 8.0 0.00 0.38 0.38 80 1008.2
20260506234532 20 159 1.6 9.7 0.00 0.38 0.38 79 1008.1
20260506234032 20 221 1.6 9.7 0.00 0.38 0.38 80 1008.1
20260506233532 20 299 1.6 11.3 0.00 0.38 0.38 79 1008.1
20260506233514 20 117 1.6 11.3 0.00 0.38 0.38 79 1008.0
20260506232527 20 246 1.6 9.7 0.00 0.38 0.38 79 1007.9
20260506232029 21 227 1.6 9.7 0.00 0.38 0.38 79 1007.9
20260506231746 21 126 1.6 9.7 0.00 0.38 0.38 79 1008.0
20260506231029 21 260 1.6 6.4 0.00 0.38 0.38 79 1008.0
20260506230801 21 234 3.2 9.7 0.00 0.38 0.38 78 1008.1
20260506230027 21 251 3.2 9.7 0.00 0.38 0.38 79 1007.9
20260506225529 21 254 3.2 12.9 0.00 0.38 0.38 78 1007.9
20260506225028 21 198 3.2 12.9 0.00 0.38 0.38 79 1007.9
20260506224529 21 218 1.6 12.9 0.00 0.38 0.38 79 1008.0
20260506224025 21 171 1.6 9.7 0.00 0.38 0.38 79 1007.9
20260506223523 21 248 1.6 9.7 0.00 0.38 0.38 80 1007.9
20260506223025 21 261 1.6 4.8 0.00 0.38 0.38 81 1007.9
20260506222525 21 287 1.6 6.4 0.00 0.38 0.38 81 1008.0
20260506222024 21 223 1.6 9.7 0.00 0.38 0.38 81 1008.0
20260506221524 21 210 0.0 9.7 0.00 0.38 0.38 81 1008.0
20260506221249 21 209 0.0 6.4 0.00 0.38 0.38 80 1007.9
20260506220524 21 209 1.6 6.4 0.00 0.38 0.38 81 1007.8
20260506220239 21 275 1.6 6.4 0.00 0.38 0.38 80 1007.8
20260506215518 20 228 1.6 8.0 0.00 0.38 0.38 81 1008.0
20260506215016 20 227 1.6 8.0 0.00 0.38 0.38 81 1008.0
20260506214516 20 194 1.6 8.0 0.00 0.38 0.38 80 1007.9
20260506214010 20 126 1.6 8.0 0.00 0.38 0.38 80 1007.9
20260506213511 20 215 1.6 4.8 0.00 0.38 0.38 81 1008.0
20260506213008 20 84 3.2 9.7 0.00 0.38 0.38 80 1008.1
20260506212505 20 208 1.6 9.7 0.00 0.38 0.38 79 1008.1
20260506212005 20 263 1.6 4.8 0.00 0.38 0.38 81 1008.0
20260506211503 20 90 0.0 4.8 0.00 0.38 0.38 80 1007.9
20260506211004 20 80 1.6 8.0 0.00 0.38 0.38 80 1007.8
20260506210503 20 262 3.2 8.0 0.00 0.38 0.38 81 1007.9
20260506210003 20 58 1.6 6.4 0.00 0.38 0.38 82 1007.7
20260506205726 20 275 1.6 9.7 0.00 0.38 0.38 82 1007.8
20260506205003 20 249 3.2 14.5 0.00 0.38 0.38 81 1007.8
20260506204734 20 212 3.2 14.5 0.00 0.38 0.38 82 1007.7
20260506204221 20 192 3.2 12.9 0.00 0.38 0.38 81 1007.9
20260506203459 20 232 1.6 11.3 0.00 0.38 0.38 82 1007.7
20260506203000 20 300 3.2 9.7 0.00 0.38 0.38 82 1007.8
20260506202725 20 173 3.2 12.9 0.00 0.38 0.38 82 1007.9
20260506202000 20 142 3.2 12.9 0.00 0.38 0.38 81 1007.8
20260506201459 20 154 1.6 8.0 0.00 0.38 0.38 81 1007.7
20260506201000 20 249 1.6 6.4 0.00 0.38 0.38 84 1007.9
20260506200453 20 280 1.6 6.4 0.00 0.38 0.38 81 1007.8
20260506200440 20 297 3.2 16.1 0.00 0.38 0.38 82 1007.8
20260506195442 20 118 3.2 16.1 0.00 0.38 0.38 83 1007.9
20260506194936 20 234 3.2 8.0 0.00 0.38 0.38 81 1007.8
20260506194430 19 121 3.2 9.7 0.00 0.38 0.38 83 1007.8
20260506193922 19 270 3.2 14.5 0.00 0.38 0.38 83 1008.0
20260506193417 19 128 3.2 14.5 0.00 0.38 0.38 84 1008.0
20260506192910 19 35 3.2 14.5 0.00 0.38 0.38 84 1008.0
20260506192404 18 331 4.8 16.1 0.00 0.38 0.38 85 1008.0
20260506191858 18 294 4.8 16.1 0.00 0.38 0.38 84 1008.2
20260506191352 18 278 3.2 11.3 0.00 0.38 0.38 84 1008.1
20260506191111 18 237 3.2 16.1 0.00 0.38 0.38 84 1008.5
20260506190339 18 250 3.2 16.1 0.00 0.38 0.38 85 1008.5
20260506185550 18 225 3.2 14.5 0.00 0.38 0.38 85 1008.6
20260506184822 18 271 3.2 11.3 0.00 0.38 0.38 84 1008.7
20260506184316 18 230 3.2 6.4 0.00 0.38 0.38 85 1008.8
20260506183811 18 15 3.2 11.3 0.00 0.38 0.38 86 1008.7
20260506183305 18 260 3.2 11.3 0.00 0.38 0.38 85 1009.0
20260506182759 18 164 3.2 11.3 0.00 0.38 0.38 85 1008.6
20260506182252 18 194 3.2 11.3 0.00 0.38 0.38 85 1008.8
20260506181746 18 127 1.6 6.4 0.00 0.38 0.38 86 1008.6
20260506181241 18 153 1.6 11.3 0.00 0.38 0.38 85 1008.7
20260506180735 18 209 1.6 11.3 0.00 0.38 0.38 85 1008.8
20260506180715 18 140 3.2 8.0 0.00 0.38 0.38 85 1008.7
20260506175722 18 140 3.2 14.5 0.00 0.38 0.38 87 1008.7
20260506175645 18 267 3.2 14.5 0.00 0.38 0.38 85 1009.0
20260506175306 18 148 3.2 14.5 0.00 0.38 0.38 86 1008.9
20260506174425 18 165 3.2 9.7 0.00 0.38 0.38 86 1008.9
20260506173658 18 115 3.2 14.5 0.00 0.38 0.38 86 1008.9
20260506173152 18 178 3.2 14.5 0.00 0.38 0.38 86 1009.0
20260506172646 17 198 3.2 14.5 0.00 0.38 0.38 86 1009.2
20260506172143 17 251 3.2 14.5 0.00 0.38 0.38 87 1009.3
20260506171904 17 273 3.2 17.7 0.00 0.38 0.38 87 1009.2
20260506171406 17 214 4.8 17.7 0.00 0.38 0.38 86 1009.2
20260506170643 17 241 4.8 17.7 0.00 0.38 0.38 86 1009.3
20260506170143 17 162 3.2 17.7 0.00 0.38 0.38 87 1009.4
20260506165642 17 86 4.8 19.3 0.00 0.38 0.38 88 1009.3
20260506165143 17 158 4.8 19.3 0.00 0.38 0.38 86 1009.4
20260506164643 17 234 4.8 17.7 0.00 0.38 0.38 87 1009.2
20260506164143 17 154 4.8 19.3 0.00 0.38 0.38 87 1009.4
20260506163643 17 143 4.8 24.1 0.00 0.38 0.38 87 1009.3
20260506163142 17 240 4.8 24.1 0.00 0.38 0.38 89 1009.3
20260506162643 17 185 4.8 19.3 0.00 0.38 0.38 89 1009.4
20260506162143 17 198 4.8 19.3 0.00 0.38 0.38 90 1009.4
20260506161646 17 89 4.8 14.5 0.00 0.38 0.38 92 1009.6
20260506161144 16 181 4.8 17.7 0.00 0.38 0.38 91 1009.5
20260506160909 16 221 4.8 17.7 0.00 0.38 0.38 91 1009.5
20260506160145 16 185 4.8 20.9 0.00 0.38 0.38 91 1009.6
20260506155640 16 240 3.2 20.9 0.00 0.38 0.38 92 1009.6
20260506155133 16 173 3.2 17.7 0.03 0.38 0.38 92 1009.4
20260506154627 16 254 4.8 12.9 0.03 0.38 0.38 92 1009.6
20260506154123 16 233 4.8 12.9 0.03 0.38 0.38 92 1009.6
20260506153623 16 242 3.2 12.9 0.03 0.38 0.38 92 1009.7
20260506153122 16 220 3.2 12.9 0.08 0.38 0.38 93 1009.6
20260506152621 16 101 3.2 16.1 0.10 0.38 0.38 93 1009.6
20260506152120 16 188 4.8 16.1 0.13 0.38 0.38 93 1009.6
20260506151836 16 294 3.2 16.1 0.18 0.38 0.38 93 1009.7
20260506151336 16 136 3.2 14.5 0.20 0.38 0.38 94 1009.6
20260506150836 16 137 4.8 19.3 0.23 0.38 0.38 94 1009.5
20260506150113 16 209 4.8 19.3 0.23 0.38 0.38 94 1009.7
20260506145843 15 230 3.2 9.7 0.23 0.38 0.38 93 1009.9
20260506145114 15 191 1.6 9.7 0.20 0.36 0.36 93 1009.9
20260506145031 15 97 3.2 11.3 0.20 0.36 0.36 93 1010.0
20260506144701 15 294 1.6 11.3 0.20 0.36 0.36 93 1009.9
20260506143610 15 139 3.2 11.3 0.20 0.36 0.36 92 1010.1
20260506143107 16 229 3.2 11.3 0.18 0.30 0.30 91 1010.1
20260506142608 16 132 3.2 9.7 0.18 0.28 0.28 91 1010.2
20260506142105 16 200 3.2 9.7 0.15 0.25 0.25 91 1010.3
20260506141606 16 215 1.6 8.0 0.13 0.20 0.20 91 1010.3
20260506141100 16 110 1.6 8.0 0.10 0.15 0.15 91 1010.2
20260506140554 16 206 1.6 11.3 0.13 0.15 0.15 91 1010.1
20260506140048 16 291 1.6 11.3 0.13 0.15 0.15 90 1010.1
20260506135816 16 120 0.0 6.4 0.13 0.15 0.15 89 1010.1
20260506135048 16 156 0.0 3.2 0.15 0.15 0.15 89 1010.0
20260506134545 16 125 1.6 4.8 0.15 0.15 0.15 88 1010.0
20260506134044 16 153 1.6 9.7 0.15 0.15 0.15 88 1010.1
20260506133546 16 152 1.6 9.7 0.15 0.15 0.15 87 1010.2
20260506133045 16 78 0.0 4.8 0.13 0.13 0.13 87 1010.3
20260506132545 16 109 0.0 4.8 0.10 0.10 0.10 87 1010.2
20260506132044 16 173 1.6 4.8 0.10 0.10 0.10 86 1010.1
20260506131545 16 109 1.6 11.3 0.08 0.08 0.08 86 1010.2
20260506131046 16 131 1.6 11.3 0.05 0.05 0.05 85 1010.4
20260506130540 16 195 1.6 6.4 0.03 0.03 0.03 85 1010.6
20260506130301 16 257 1.6 9.7 0.03 0.03 0.03 85 1010.4
20260506125540 16 221 1.6 9.7 0.03 0.03 0.03 84 1010.2
20260506125041 16 123 1.6 9.7 0.00 0.00 0.00 83 1010.3
20260506124542 17 221 1.6 9.7 0.00 0.00 0.00 83 1010.3
20260506124042 17 219 1.6 6.4 0.00 0.00 0.00 83 1010.2
20260506123802 17 137 1.6 6.4 0.00 0.00 0.00 83 1010.1
20260506123040 17 53 1.6 6.4 0.00 0.00 0.00 82 1010.0
20260506122543 17 209 1.6 6.4 0.00 0.00 0.00 82 1009.9
20260506122307 17 101 1.6 4.8 0.00 0.00 0.00 82 1010.0
20260506121541 17 202 1.6 4.8 0.00 0.00 0.00 81 1010.0
20260506121531 17 87 1.6 6.4 0.00 0.00 0.00 81 1010.0
20260506120541 17 222 1.6 6.4 0.00 0.00 0.00 80 1009.8
20260506120527 17 113 1.6 8.0 0.00 0.00 0.00 80 1009.9
20260506115810 17 130 1.6 8.0 0.00 0.00 0.00 79 1010.1
20260506115041 17 126 1.6 12.9 0.00 0.00 0.00 78 1010.2
20260506114540 17 132 1.6 12.9 0.00 0.00 0.00 77 1010.3
20260506114043 17 190 3.2 11.3 0.00 0.00 0.00 76 1010.3
20260506113535 18 277 3.2 11.3 0.00 0.00 0.00 76 1010.3
20260506113030 18 188 1.6 9.7 0.00 0.00 0.00 76 1010.2
20260506112523 18 163 3.2 11.3 0.00 0.00 0.00 75 1010.1
20260506112017 18 269 4.8 14.5 0.00 0.00 0.00 74 1010.0
20260506111511 18 74 3.2 14.5 0.00 0.00 0.00 73 1009.9
20260506111010 18 281 3.2 16.1 0.00 0.00 0.00 74 1009.8
20260506110734 18 81 4.8 16.1 0.00 0.00 0.00 73 1009.7
20260506110230 18 298 3.2 11.3 0.00 0.00 0.00 73 1009.6
20260506105506 18 232 3.2 12.9 0.00 0.00 0.00 73 1009.6
20260506105005 18 121 3.2 16.1 0.00 0.00 0.00 73 1009.6
20260506104504 18 63 3.2 16.1 0.00 0.00 0.00 73 1009.6
20260506104003 18 232 3.2 16.1 0.00 0.00 0.00 73 1009.6
20260506103502 18 143 3.2 19.3 0.00 0.00 0.00 73 1009.6
20260506103003 18 143 3.2 19.3 0.00 0.00 0.00 73 1009.5
20260506102505 18 207 4.8 19.3 0.00 0.00 0.00 73 1009.5
20260506102003 18 257 3.2 19.3 0.00 0.00 0.00 73 1009.5
20260506101502 18 132 3.2 14.5 0.00 0.00 0.00 72 1009.5
20260506101003 18 146 3.2 14.5 0.00 0.00 0.00 72 1009.5
20260506100500 18 223 3.2 16.1 0.00 0.00 0.00 72 1009.5
20260506100000 18 250 3.2 16.1 0.00 0.00 0.00 72 1009.6